{"data":{"norad_id":56843,"epoch":"2026-05-24T02:30:47.445120Z","epoch_age_seconds":162720,"freshness":"FRESH","line1":"1 56843U 23079W   26144.10471580 -.00005351  00000+0 -18493-3 0  9993","line2":"2 56843  43.0053  40.9102 0001418 278.4941  81.5750 15.27603652164428","mean_motion":15.27603652,"eccentricity":0.0001418,"inclination_deg":43.0053,"raan_deg":40.9102,"arg_perigee_deg":278.4941,"mean_anomaly_deg":81.575,"bstar":-0.00018493,"rev_number":16442,"period_min":94.265289174629,"perigee_km":482.00536821078,"apogee_km":483.95118050259,"semimajor_km":6861.1152743567,"source":"CELESTRAK","updated_at":"2026-05-25T13:38:18.165894Z"}}